Location: Fort Wayne
(41.1310°N, 85.1290°W)
Time: 07:33:02
(UTC-04:00)

IDEFIX/ARIANE 42P - Visible Passes

Search period start: 26 April 2018 00:00
Search period end: 06 May 2018 00:00
Orbit: 785 x 803 km, 98.3° (Epoch: 25 April)

Date Brightness Start Highest point End Pass type
(mag) Time Alt. Az. Time Alt. Az. Time Alt. Az.
26 Apr 5.3 05:27:56 10° NE 05:31:15 17° E 05:34:34 10° SE visible
28 Apr 4.0 06:09:34 10° NNE 06:14:33 42° E 06:19:30 10° S visible
29 Apr 5.0 05:41:53 10° NE 05:46:02 23° E 05:50:09 10° SE visible
30 Apr 5.5 05:15:14 10° ENE 05:17:23 12° E 05:19:33 10° ESE visible
02 May 4.5 05:56:06 10° NNE 06:00:47 32° E 06:05:25 10° SSE visible
03 May 5.2 05:28:43 10° NE 05:32:12 18° E 05:35:40 10° SE visible
